Regional Weather Roundup
Issued by NWS

Home | Current Version | Previous Version | Text Only | Print | Product List | Glossary On
Versions: 1 2 3 4 5 6 7 8 9 10 11 12 13 14 15 16 17 18 19 20 21 22 23 24 25 26 27 28 29 30 31 32 33 34 35 36 37 38 39 40 41 42 43 44 45 46 47 48 49 50
000
ASUS43 KTOP 161608
RWRKS

WEATHER ROUNDUP FOR KANSAS
NATIONAL WEATHER SERVICE GOODLAND KS
1000 AM CST TUE JAN 16 2018

NOTE:  "FAIR" INDICATES FEW OR NO CLOUDS BELOW 12,000 FEET WITH NO
SIGNIFICANT WEATHER AND/OR OBSTRUCTIONS TO VISIBILITY.

KSZ001>006-013>018-027>032-041>047-161700-
NORTHWEST KANSAS

CITY           SKY/WX    TMP DP  RH WIND       PRES   REMARKS
GOODLAND       SUNNY      3  -3  76 N5        30.62R
HAYS           SUNNY      5  -5  63 NW13      30.77R WCI -12
HILL CITY      SUNNY      4  -6  63 N15       30.75R WCI -14
RUSSELL        SUNNY    N/A N/A N/A N14       30.76R
$$

KSZ061>065-074>080-084>089-161700-
SOUTHWEST KANSAS

CITY           SKY/WX    TMP DP  RH WIND       PRES   REMARKS
DODGE CITY     SUNNY      5  -6  60 N15       30.73R WCI -13
ELKHART        SUNNY     11   2  64 N5        30.65S
GARDEN CITY    SUNNY      5  -8  55 N14       30.71R WCI -12
GREAT BEND     SUNNY      4  -5  66 NW14      30.77R WCI -14
LIBERAL        SUNNY      8  -6  52 N18       30.72S WCI -11
PRATT          SUNNY      5  -6  62 NW13      30.78R WCI -12
$$

KSZ066>073-081>083-090>101-161700-
SOUTHEAST KANSAS

CITY           SKY/WX    TMP DP  RH WIND       PRES   REMARKS
CHANUTE        MOSUNNY    4  -6  63 N15G21    30.81R WCI -14
COFFEYVILLE    SUNNY      6  -3  66 N12       30.85R WCI  -9
HUTCHINSON     SUNNY      5  -4  66 N14       30.78R WCI -12
MEDICINE LODGE   N/A      7  -4  60 N18G25    30.80S WCI -12
NEWTON         SUNNY      5  -3  69 N17       30.78R WCI -14
PARSONS        SUNNY      5  -3  69 N9        30.83R
WICHITA INTL   MOSUNNY    6  -3  66 N16       30.80R WCI -12
WICHITA JABRA  SUNNY      4  -3  73 N17       30.79R WCI -16
WICHITA MCCONL SUNNY      5  -4  66 N16       30.79R WCI -13
WINFIELD       SUNNY      7  -2  66 N14       30.83R WCI -10
$$

KSZ007>012-019>026-033>040-048>060-102>105-161700-
NORTHEAST KANSAS

CITY           SKY/WX    TMP DP  RH WIND       PRES   REMARKS
CONCORDIA      PTSUNNY    1  -5  75 N10       30.78R WCI -15
EMPORIA        CLOUDY     2  -5  72 NW14      30.78R WCI -16
LAWRENCE       PTSUNNY    3  -5  69 NW15      30.79R WCI -16
MANHATTAN      SUNNY      4  -5  66 VRB5      30.81R
MARYSVILLE     CLOUDY     1  -6  71 NW10      30.78R WCI -14
OLATHE IND     MIX PCPN   1  -5  75 NW17G23   30.76R WCI -19
OLATHE EXE     CLOUDY    -1  -7  75 N12       30.75R WCI -18
SALINA         SUNNY      5  -4  66 N14       30.82R WCI -12
TOPEKA BILLARD SUNNY      4  -4  69 NW12      30.80R WCI -12
TOPEKA FORBES  SUNNY      3  -5  69 NW14      30.77R WCI -15
$$




USA.gov is the U.S. government's official web portal to all federal, state and local government web resources and services.